Regional Weather Roundup
Issued by NWS

Home | Current Version | Previous Version | Text Only | Print | Product List | Glossary On
Versions: 1 2 3 4 5 6 7 8 9 10 11 12 13 14 15 16 17 18 19 20 21 22 23 24 25 26 27 28 29 30 31 32 33 34 35 36 37 38 39 40 41 42 43 44 45 46 47 48 49 50
000
ASUS43 KOAX 180310
RWRNE

WEATHER ROUNDUP FOR NEBRASKA
NATIONAL WEATHER SERVICE OMAHA NE
1000 PM CDT TUE OCT 17 2017

NOTES: SATELLITE DATA IS BEING USED TO AUGMENT CLOUD COVER ABOVE
       12000 FEET.
       "FAIR" INDICATES FEW OR NO CLOUDS BELOW 12,000 FEET WITH NO
       SIGNIFICANT WEATHER AND/OR OBSTRUCTIONS TO VISIBILITY.


NEZ001>004-019>022-054>056-180400-
NEBRASKA PANHANDLE

CITY           SKY/WX    TMP DP  RH WIND       PRES   REMARKS
SCOTTSBLUFF    CLOUDY    49  26  41 N5        29.97S
ALLIANCE       CLEAR     44  25  47 CALM      29.96S
CHADRON        CLEAR     49  22  34 W10       29.89S
GORDON         FAIR      52  26  35 SW7       29.90F
KIMBALL        CLEAR     46  26  47 W7        30.06S
SIDNEY         CLOUDY    45  24  43 W8        30.02F
$$

NEZ057>060-069>072-079>082-180400-
SOUTHWEST NEBRASKA

CITY           SKY/WX    TMP DP  RH WIND       PRES   REMARKS
NORTH PLATTE   CLEAR     55  33  43 SE6       29.95F
IMPERIAL       CLEAR     56  27  32 S9        29.99S
LEXINGTON      CLEAR     58  37  45 SE6       29.97F
MCCOOK         CLEAR     59  36  42 S13       29.98F
OGALLALA       CLEAR     62  26  25 W6        29.97S
$$

NEZ005>010-023>029-035>040-094-180400-
NORTH CENTRAL NEBRASKA

CITY           SKY/WX    TMP DP  RH WIND       PRES   REMARKS
VALENTINE      CLEAR     60  28  29 SW9       29.88F
AINSWORTH      CLEAR     50  33  52 S8        29.91S
BROKEN BOW     CLEAR     44  37  76 CALM      29.95F
O`NEILL        CLEAR     57  42  55 S7        29.92S
ORD            CLEAR     50  37  61 S7        29.93F
THEDFORD       CLEAR     52  30  42 SW3       29.95S
$$

NEZ041-046>049-061>064-073>077-083>087-180400-
SOUTH CENTRAL NEBRASKA

CITY           SKY/WX    TMP DP  RH WIND       PRES   REMARKS
GRAND ISLAND   CLEAR     57  45  64 S9        29.99S
AURORA         CLEAR     59  43  55 S7        29.99S
HASTINGS       CLEAR     57  42  57 S8        30.00S
HEBRON         CLEAR     56  47  72 S6        30.00S
HOLDREGE       CLEAR     53  39  59 S9        29.99S
KEARNEY        CLEAR     57  39  51 S12       29.98F
YORK           CLEAR     55  46  71 S6        30.00R
$$

NEZ011>018-030>034-042>045-180400-
NORTHEAST NEBRASKA

CITY           SKY/WX    TMP DP  RH WIND       PRES   REMARKS
NORFOLK        CLEAR     59  45  59 S13       29.96S
ALBION         PTCLDY    56  42  59 SE5       29.96S
BLAIR          CLEAR     58  47  65 S6        29.99S
COLUMBUS       PTCLDY    57  45  64 SE5       29.99R
FREMONT        CLEAR     61  46  57 S6        29.99S
TEKAMAH        CLEAR     48  44  86 S5        29.98S
WAYNE          CLEAR     55  44  66 S8        29.96S
$$

NEZ050>053-065>068-078-088>093-180400-
SOUTHEAST NEBRASKA

CITY           SKY/WX    TMP DP  RH WIND       PRES   REMARKS
LINCOLN        PTCLDY    56  46  69 S5        30.01S
OMAHA EPPLEY   CLEAR     57  46  66 S7        30.00S
BEATRICE       CLEAR     60  49  67 S8        30.01S
FALLS CITY     CLEAR     58  47  66 S9        30.04R
NEBRASKA CITY  CLEAR     53  47  78 S7        30.02R
PLATTSMOUTH    CLEAR     56  47  71 SE5       30.01S
$$

NEZ044-045-051>053-067-180400-
OMAHA AREA

CITY           SKY/WX    TMP DP  RH WIND       PRES   REMARKS
OMAHA EPPLEY   CLEAR     57  46  66 S7        30.00S
BLAIR          CLEAR     58  47  65 S6        29.99S
FREMONT        CLEAR     61  46  57 S6        29.99S
MILLARD        CLEAR     53  49  86 CALM      30.00S
OFFUTT AFB     CLEAR     50  45  84 E3        30.00S
PLATTSMOUTH    CLEAR     56  47  71 SE5       30.01S
WAHOO          FAIR      54  45  71 CALM      29.99S
$$




USA.gov is the U.S. government's official web portal to all federal, state and local government web resources and services.